EW8310 Weather Reports


Display with metric or nautical units.
time (UTC)temp
F
wind
direction
speed
MPH
gust
MPH
rain 1hr
in
rain 24hr
in
rain mn
in
humidity
%
barometer
mb
20260905171322 88 313 1.0 6.0 0.00 0.00 0.00 45 1012.1
20260905170821 87 285 2.0 6.0 0.00 0.00 0.00 46 1012.1
20260905170322 88 298 2.0 5.0 0.00 0.00 0.00 45 1012.2
20260905170044 88 293 0.0 4.0 0.00 0.00 0.00 46 1012.1
20260905165538 89 0 0.0 1.0 0.00 0.00 0.00 45 1012.1
20260905164821 89 250 0.0 3.0 0.00 0.00 0.00 45 1012.2
20260905164322 88 240 0.0 3.0 0.00 0.00 0.00 48 1012.2
20260905163821 88 272 0.0 3.0 0.00 0.00 0.00 47 1012.2
20260905163320 87 283 0.0 4.0 0.00 0.00 0.00 49 1012.2
20260905162821 87 262 1.0 4.0 0.00 0.00 0.00 48 1012.2
20260905162320 87 234 0.0 2.0 0.00 0.00 0.00 47 1012.2
20260905161821 88 243 0.0 2.0 0.00 0.00 0.00 47 1012.2
20260905161320 88 152 0.0 3.0 0.00 0.00 0.00 45 1012.2
20260905160820 87 209 2.0 3.0 0.00 0.00 0.00 47 1012.2
20260905160319 87 226 0.0 2.0 0.00 0.00 0.00 48 1012.2
20260905155820 86 149 0.0 0.0 0.00 0.00 0.00 50 1012.1
20260905155526 85 203 0.0 2.0 0.00 0.00 0.00 52 1012.1
20260905155413 86 152 0.0 2.0 0.00 0.00 0.00 51 1012.2
20260905154319 84 231 0.0 2.0 0.00 0.00 0.00 54 1012.1
20260905153819 83 234 0.0 2.0 0.00 0.00 0.00 56 1012.1
20260905153320 82 275 0.0 2.0 0.00 0.00 0.00 58 1012.2
20260905152819 82 334 0.0 2.0 0.00 0.00 0.00 59 1012.1
20260905152319 82 285 0.0 2.0 0.00 0.00 0.00 58 1012.2
20260905151819 82 275 0.0 1.0 0.00 0.00 0.00 60 1012.1
20260905151319 82 275 0.0 1.0 0.00 0.00 0.00 59 1012.1
20260905150818 82 275 0.0 2.0 0.00 0.00 0.00 57 1012.1
20260905150319 84 275 0.0 2.0 0.00 0.00 0.00 55 1012.1
20260905145819 85 147 0.0 0.0 0.00 0.00 0.00 55 1012.1
20260905145319 82 147 0.0 0.0 0.00 0.00 0.00 58 1012.1
20260905144818 81 147 0.0 0.0 0.00 0.00 0.00 59 1012.2
20260905144318 80 147 0.0 0.0 0.00 0.00 0.00 60 1012.1
20260905143818 80 147 0.0 0.0 0.00 0.00 0.00 60 1012.2
20260905143317 80 145 0.0 0.0 0.00 0.00 0.00 62 1012.1
20260905142818 79 147 0.0 0.0 0.00 0.00 0.00 65 1012.1
20260905142317 78 147 0.0 0.0 0.00 0.00 0.00 67 1012.0
20260905141818 77 151 0.0 0.0 0.00 0.00 0.00 66 1012.0
20260905141804 77 151 0.0 0.0 0.00 0.00 0.00 68 1011.8
20260905141044 76 152 0.0 0.0 0.00 0.00 0.00 70 1011.8
20260905140541 76 151 0.0 0.0 0.00 0.00 0.00 70 1011.7
20260905135817 76 152 0.0 0.0 0.00 0.00 0.00 71 1011.6
20260905135317 75 23 0.0 0.0 0.00 0.00 0.00 72 1011.5
20260905134816 75 23 0.0 0.0 0.00 0.00 0.00 73 1011.5
20260905134316 75 23 0.0 0.0 0.00 0.00 0.00 72 1011.4
20260905133816 74 23 0.0 0.0 0.00 0.00 0.00 72 1011.3
20260905133316 74 24 0.0 0.0 0.00 0.00 0.00 73 1011.2
20260905133035 73 24 0.0 0.0 0.00 0.00 0.00 74 1011.1
20260905132541 73 24 0.0 0.0 0.00 0.00 0.00 75 1011.1
20260905131817 73 24 0.0 0.0 0.00 0.00 0.00 75 1010.9
20260905131316 73 24 0.0 1.0 0.00 0.00 0.00 74 1010.9
20260905131044 73 35 0.0 2.0 0.00 0.00 0.00 75 1010.9
20260905130538 72 37 0.0 2.0 0.00 0.00 0.00 77 1010.8
20260905125816 72 24 0.0 0.0 0.00 0.00 0.00 78 1010.8
20260905125535 72 24 0.0 0.0 0.00 0.00 0.00 77 1010.8
20260905124815 72 24 0.0 0.0 0.00 0.00 0.00 76 1010.9
20260905124315 72 24 0.0 0.0 0.00 0.00 0.00 76 1010.8
20260905124042 72 24 0.0 0.0 0.00 0.00 0.00 76 1010.7
20260905123538 72 24 0.0 0.0 0.00 0.00 0.00 76 1010.7
20260905122815 73 24 0.0 0.0 0.00 0.00 0.00 75 1010.8
20260905122315 73 24 0.0 0.0 0.00 0.00 0.00 74 1010.8
20260905121814 73 24 0.0 0.0 0.00 0.00 0.00 73 1010.7
20260905121314 74 24 0.0 0.0 0.00 0.00 0.00 72 1010.7
20260905120815 74 25 0.0 0.0 0.00 0.00 0.00 72 1010.7
20260905120315 74 27 0.0 0.0 0.00 0.00 0.00 72 1010.7
20260905115814 73 27 0.0 0.0 0.00 0.00 0.00 72 1010.7
20260905115314 73 27 0.0 0.0 0.00 0.00 0.00 72 1010.5
20260905114814 74 27 0.0 0.0 0.00 0.00 0.00 72 1010.4
20260905114313 74 27 0.0 0.0 0.00 0.00 0.00 70 1010.5
20260905113814 74 27 0.0 0.0 0.00 0.00 0.00 70 1010.4
20260905113534 74 27 0.0 0.0 0.00 0.00 0.00 70 1010.4
20260905112814 74 14 0.0 0.0 0.00 0.00 0.00 71 1010.5
20260905112532 74 14 0.0 1.0 0.00 0.00 0.00 71 1010.5
20260905111813 74 45 0.0 1.0 0.00 0.00 0.00 72 1010.5
20260905111313 73 87 0.0 0.0 0.00 0.00 0.00 73 1010.7
20260905110813 73 87 0.0 0.0 0.00 0.00 0.00 74 1010.5
20260905110534 73 87 0.0 0.0 0.00 0.00 0.00 74 1010.5
20260905105813 73 87 0.0 0.0 0.00 0.00 0.00 75 1010.5
20260905105313 73 87 0.0 0.0 0.00 0.00 0.00 75 1010.4
20260905105035 73 87 0.0 0.0 0.00 0.00 0.00 75 1010.4
20260905104312 74 87 0.0 0.0 0.00 0.00 0.00 74 1010.4
20260905103812 74 87 0.0 0.0 0.00 0.00 0.00 72 1010.4
20260905103312 74 87 0.0 0.0 0.00 0.00 0.00 72 1010.4
20260905103031 74 87 0.0 0.0 0.00 0.00 0.00 72 1010.5
20260905102312 74 87 0.0 0.0 0.00 0.00 0.00 72 1010.5
20260905101812 74 87 0.0 0.0 0.00 0.00 0.00 73 1010.7
20260905101532 74 87 0.0 0.0 0.00 0.00 0.00 73 1010.7
20260905100811 74 87 0.0 0.0 0.00 0.00 0.00 73 1010.5
20260905100312 74 87 0.0 0.0 0.00 0.00 0.00 73 1010.7
20260905095812 74 87 0.0 0.0 0.00 0.00 0.00 73 1010.7
20260905095311 74 87 0.0 0.0 0.00 0.00 0.00 72 1010.7
20260905094811 74 87 0.0 0.0 0.00 0.00 0.00 72 1010.7
20260905094534 74 87 0.0 0.0 0.00 0.00 0.00 72 1010.5
20260905093811 74 87 0.0 0.0 0.00 0.00 0.00 73 1010.7
20260905093311 74 87 0.0 0.0 0.00 0.00 0.00 73 1010.5
20260905092810 74 87 0.0 0.0 0.00 0.00 0.00 72 1010.7
20260905092311 75 87 0.0 0.0 0.00 0.00 0.00 70 1010.5
20260905091811 75 89 0.0 0.0 0.00 0.00 0.00 70 1010.7
20260905091310 75 89 0.0 0.0 0.00 0.00 0.00 69 1010.5
20260905090810 75 87 0.0 0.0 0.00 0.00 0.00 69 1010.5
20260905090310 76 87 0.0 0.0 0.00 0.00 0.00 69 1010.5
20260905090038 75 87 0.0 0.0 0.00 0.00 0.00 68 1010.5
20260905085310 75 87 0.0 0.0 0.00 0.00 0.00 68 1010.7
20260905084809 75 87 0.0 0.0 0.00 0.00 0.00 69 1010.7
20260905084310 75 87 0.0 0.0 0.00 0.00 0.00 69 1010.7
20260905083809 75 87 0.0 0.0 0.00 0.00 0.00 69 1010.7
20260905083310 75 87 0.0 0.0 0.00 0.00 0.00 70 1010.7
20260905082810 75 87 0.0 0.0 0.00 0.00 0.00 69 1010.7
20260905082533 75 87 0.0 0.0 0.00 0.00 0.00 70 1010.7
20260905081809 75 87 0.0 0.0 0.00 0.00 0.00 69 1010.8
20260905081309 75 87 0.0 0.0 0.00 0.00 0.00 70 1010.8
20260905080809 75 87 0.0 0.0 0.00 0.00 0.00 70 1010.8
20260905080309 76 87 0.0 0.0 0.00 0.00 0.00 68 1010.8
20260905075810 76 87 0.0 0.0 0.00 0.00 0.00 68 1010.8
20260905075309 76 87 0.0 0.0 0.00 0.00 0.00 67 1011.0
20260905074809 76 87 0.0 0.0 0.00 0.00 0.00 67 1010.9
20260905074308 77 87 0.0 0.0 0.00 0.00 0.00 65 1011.0
20260905074301 77 87 0.0 0.0 0.00 0.00 0.00 64 1010.9
20260905073309 78 89 0.0 0.0 0.00 0.00 0.00 63 1010.9
20260905072807 78 89 0.0 0.0 0.00 0.00 0.00 63 1010.9
20260905072308 78 89 0.0 0.0 0.00 0.00 0.00 62 1010.9
20260905071807 78 89 0.0 0.0 0.00 0.00 0.00 62 1010.8
20260905071308 78 49 0.0 0.0 0.00 0.00 0.00 63 1010.8
20260905070808 78 49 0.0 0.0 0.00 0.00 0.00 63 1010.8
20260905070307 78 49 0.0 0.0 0.00 0.00 0.00 62 1010.7
20260905065808 79 49 0.0 0.0 0.00 0.00 0.00 62 1010.9
20260905065307 79 49 0.0 0.0 0.00 0.00 0.00 62 1010.9
20260905065028 79 49 0.0 0.0 0.00 0.00 0.00 61 1010.9
20260905064307 79 49 0.0 1.0 0.00 0.00 0.00 60 1010.8
20260905063806 80 49 0.0 1.0 0.00 0.00 0.00 60 1010.9
20260905063307 80 35 0.0 1.0 0.00 0.00 0.00 60 1010.9
20260905062807 79 34 0.0 1.0 0.00 0.00 0.00 60 1010.8
20260905062307 79 69 0.0 0.0 0.00 0.00 0.00 61 1010.9
20260905061807 80 73 0.0 0.0 0.00 0.00 0.00 60 1010.8
20260905061531 80 103 0.0 0.0 0.00 0.00 0.00 58 1010.8
20260905060806 80 103 0.0 2.0 0.00 0.00 0.00 58 1010.8
20260905060755 80 104 0.0 2.0 0.00 0.00 0.00 58 1010.8
20260905055805 80 131 0.0 0.0 0.00 0.00 0.00 58 1010.8
20260905055306 80 131 0.0 0.0 0.00 0.00 0.00 58 1010.8
20260905054806 80 131 0.0 0.0 0.00 0.00 0.00 58 1010.8
20260905054305 80 131 0.0 0.0 0.00 0.00 0.00 57 1010.7
20260905053806 80 131 0.0 0.0 0.00 0.00 0.00 56 1010.7
20260905053752 81 131 0.0 0.0 0.00 0.00 0.00 56 1010.7
20260905052806 81 131 0.0 0.0 0.00 0.00 0.00 54 1010.4
20260905052306 81 131 0.0 0.0 0.00 0.00 0.00 54 1010.4
20260905051804 81 131 0.0 2.0 0.00 0.00 0.00 52 1010.4
20260905051305 81 131 0.0 2.0 0.00 0.00 0.00 51 1010.4
20260905050805 81 103 0.0 1.0 0.00 0.00 0.00 50 1010.3
20260905050531 82 103 0.0 0.0 0.00 0.00 0.00 48 1010.4
20260905045805 81 106 0.0 1.0 0.00 0.00 0.00 48 1010.3
20260905045306 81 87 0.0 1.0 0.00 0.00 0.00 49 1010.2
20260905044805 81 357 0.0 0.0 0.00 0.00 0.00 50 1010.2
20260905044522 81 357 0.0 0.0 0.00 0.00 0.00 51 1010.2
20260905043805 81 357 0.0 0.0 0.00 0.00 0.00 53 1010.2
20260905043304 81 357 0.0 0.0 0.00 0.00 0.00 51 1010.2
20260905042804 81 357 0.0 0.0 0.00 0.00 0.00 51 1010.2
20260905042306 82 357 0.0 0.0 0.00 0.00 0.00 51 1010.1
20260905041804 82 357 0.0 1.0 0.00 0.00 0.00 50 1010.2
20260905041303 82 357 0.0 1.0 0.00 0.00 0.00 49 1010.2
20260905040804 82 317 0.0 1.0 0.00 0.00 0.00 50 1010.2
20260905040303 82 353 0.0 1.0 0.00 0.00 0.00 49 1010.2
20260905040028 83 351 0.0 0.0 0.00 0.00 0.00 47 1010.2
20260905035306 83 351 0.0 0.0 0.00 0.00 0.00 45 1010.2
20260905034805 83 354 0.0 0.0 0.00 0.00 0.00 46 1010.2
20260905034303 83 354 0.0 0.0 0.00 0.00 0.00 44 1010.1
20260905033803 83 353 0.0 0.0 0.00 0.00 0.00 45 1010.0
20260905033303 83 353 0.0 0.0 0.00 0.00 0.00 44 1009.9
20260905033021 83 353 0.0 0.0 0.00 0.00 0.00 45 1009.9
20260905032530 83 10 0.0 1.0 0.00 0.00 0.00 45 1009.8
20260905031802 83 10 0.0 1.0 0.00 0.00 0.00 43 1009.7
20260905031302 84 336 0.0 0.0 0.00 0.00 0.00 45 1009.7
20260905030802 84 336 0.0 0.0 0.00 0.00 0.00 43 1009.7
20260905030518 85 336 0.0 0.0 0.00 0.00 0.00 43 1009.6
20260905025801 85 336 0.0 0.0 0.00 0.00 0.00 41 1009.5
20260905025301 85 336 0.0 0.0 0.00 0.00 0.00 40 1009.5
20260905024802 86 336 0.0 0.0 0.00 0.00 0.00 39 1009.2
20260905024301 86 336 0.0 0.0 0.00 0.00 0.00 39 1009.2
20260905023802 86 336 0.0 0.0 0.00 0.00 0.00 39 1009.1
20260905023746 86 336 0.0 0.0 0.00 0.00 0.00 39 1009.0
20260905023023 87 336 0.0 0.0 0.00 0.00 0.00 37 1008.9
20260905022300 87 336 0.0 2.0 0.00 0.00 0.00 36 1008.9
20260905021801 87 324 0.0 2.0 0.00 0.00 0.00 36 1008.9
20260905021300 88 305 0.0 1.0 0.00 0.00 0.00 35 1008.9
20260905020801 88 305 0.0 1.0 0.00 0.00 0.00 34 1008.9
20260905020300 89 305 0.0 4.0 0.00 0.00 0.00 33 1008.8
20260905015801 89 300 0.0 4.0 0.00 0.00 0.00 33 1008.7
20260905015525 89 317 0.0 4.0 0.00 0.00 0.00 33 1008.7
20260905014759 89 266 0.0 4.0 0.00 0.00 0.00 33 1008.6
20260905014300 89 290 0.0 5.0 0.00 0.00 0.00 33 1008.5
20260905013800 89 303 0.0 5.0 0.00 0.00 0.00 33 1008.6
20260905013302 90 292 0.0 3.0 0.00 0.00 0.00 32 1008.6
20260905012800 90 295 0.0 3.0 0.00 0.00 0.00 32 1008.6
20260905012300 90 305 0.0 5.0 0.00 0.00 0.00 33 1008.6
20260905012021 91 309 1.0 6.0 0.00 0.00 0.00 31 1008.7
20260905011259 91 295 2.0 7.0 0.00 0.00 0.00 31 1008.5
20260905010758 91 288 4.0 10.0 0.00 0.00 0.00 32 1008.5
20260905010259 92 302 4.0 10.0 0.00 0.00 0.00 32 1008.5
20260905005759 92 254 2.0 7.0 0.00 0.00 0.00 32 1008.5
20260905005259 92 309 4.0 9.0 0.00 0.00 0.00 32 1008.5
20260905004759 92 283 5.0 11.0 0.00 0.00 0.00 32 1008.4
20260905004522 92 298 4.0 11.0 0.00 0.00 0.00 32 1008.5
20260905003758 92 271 4.0 11.0 0.00 0.00 0.00 32 1008.5
20260905003259 92 276 4.0 11.0 0.00 0.00 0.00 32 1008.4
20260905002758 92 286 2.0 11.0 0.00 0.00 0.00 32 1008.3
20260905002258 92 282 2.0 14.0 0.00 0.00 0.00 32 1008.2
20260905002017 92 254 4.0 14.0 0.00 0.00 0.00 32 1008.2
20260905001258 92 324 7.0 13.0 0.00 0.00 0.00 32 1008.1
20260905000758 92 268 5.0 11.0 0.00 0.00 0.00 33 1008.1
20260905000257 93 286 5.0 10.0 0.00 0.00 0.00 34 1008.1
20260904235758 93 247 4.0 10.0 0.00 0.00 0.00 33 1008.1
20260904235521 93 272 3.0 14.0 0.00 0.00 0.00 31 1008.1
20260904234753 93 334 7.0 14.0 0.00 0.00 0.00 30 1008.1
20260904234518 93 285 3.0 12.0 0.00 0.00 0.00 31 1008.1
20260904233757 93 275 4.0 15.0 0.00 0.00 0.00 30 1008.1
20260904233257 93 285 8.0 15.0 0.00 0.00 0.00 29 1008.2
20260904232757 94 192 5.0 14.0 0.00 0.00 0.00 29 1008.2
20260904232257 94 243 5.0 14.0 0.00 0.00 0.00 28 1008.2
20260904231756 94 265 6.0 12.0 0.00 0.00 0.00 28 1008.2
20260904231514 94 231 3.0 11.0 0.00 0.00 0.00 28 1008.2
20260904230756 94 265 6.0 13.0 0.00 0.00 0.00 28 1008.2
20260904230253 94 300 6.0 13.0 0.00 0.00 0.00 27 1008.3
20260904225756 94 250 4.0 13.0 0.00 0.00 0.00 30 1008.2
20260904225256 94 234 6.0 12.0 0.00 0.00 0.00 29 1008.2
20260904224755 94 293 3.0 13.0 0.00 0.00 0.00 30 1008.2
20260904224256 94 312 6.0 14.0 0.00 0.00 0.00 30 1008.3
20260904223756 94 293 8.0 15.0 0.00 0.00 0.00 29 1008.4
20260904223255 94 314 6.0 15.0 0.00 0.00 0.00 31 1008.4
20260904222756 94 285 5.0 12.0 0.00 0.00 0.00 32 1008.5
20260904222256 94 281 6.0 12.0 0.00 0.00 0.00 32 1008.4
20260904221754 94 281 4.0 14.0 0.00 0.00 0.00 34 1008.5
20260904221255 94 268 5.0 14.0 0.00 0.00 0.00 32 1008.5
20260904220755 94 6 6.0 14.0 0.00 0.00 0.00 33 1008.5
20260904220255 94 274 7.0 12.0 0.00 0.00 0.00 33 1008.6
20260904220019 94 209 4.0 10.0 0.00 0.00 0.00 35 1008.6
20260904215254 94 245 3.0 11.0 0.00 0.00 0.00 34 1008.6
20260904214755 93 279 4.0 11.0 0.00 0.00 0.00 34 1008.7
20260904214255 93 274 5.0 13.0 0.00 0.00 0.00 34 1008.9
20260904214231 94 241 2.0 13.0 0.00 0.00 0.00 33 1008.8
20260904213253 95 259 3.0 15.0 0.00 0.00 0.00 32 1008.8
20260904212754 95 265 5.0 15.0 0.00 0.00 0.00 33 1008.9
20260904212522 96 282 6.0 12.0 0.00 0.00 0.00 33 1009.0
20260904212016 96 151 4.0 11.0 0.00 0.00 0.00 31 1009.0
20260904211253 95 216 3.0 11.0 0.00 0.00 0.00 31 1009.2
20260904210754 94 235 4.0 11.0 0.00 0.00 0.00 32 1009.2
20260904210519 94 231 4.0 11.0 0.00 0.00 0.00 32 1009.2
20260904210018 95 235 3.0 11.0 0.00 0.00 0.00 32 1009.4
20260904205516 95 305 3.0 11.0 0.00 0.00 0.00 32 1009.4
20260904204753 95 285 3.0 11.0 0.00 0.00 0.00 30 1009.5
20260904204253 95 269 1.0 6.0 0.00 0.00 0.00 32 1009.5
20260904203753 95 292 0.0 6.0 0.00 0.00 0.00 32 1009.7
20260904203253 96 264 2.0 6.0 0.00 0.00 0.00 32 1009.7
20260904202753 95 190 1.0 7.0 0.00 0.00 0.00 33 1009.8
20260904202253 94 223 1.0 10.0 0.00 0.00 0.00 34 1009.9
20260904201752 93 207 3.0 10.0 0.00 0.00 0.00 36 1010.0
20260904201249 94 157 1.0 9.0 0.00 0.00 0.00 35 1010.0
20260904200751 93 247 2.0 9.0 0.00 0.00 0.00 38 1010.1
20260904200252 92 276 3.0 6.0 0.00 0.00 0.00 40 1010.2
20260904200009 92 233 2.0 6.0 0.00 0.00 0.00 39 1010.2
20260904195252 93 338 1.0 6.0 0.00 0.00 0.00 38 1010.2
20260904195011 94 299 2.0 9.0 0.00 0.00 0.00 37 1010.4
20260904194252 94 244 4.0 9.0 0.00 0.00 0.00 39 1010.4
20260904193751 93 237 0.0 7.0 0.00 0.00 0.00 39 1010.4
20260904193251 93 145 2.0 6.0 0.00 0.00 0.00 40 1010.5
20260904192748 93 228 0.0 5.0 0.00 0.00 0.00 40 1010.7
20260904192251 93 243 1.0 7.0 0.00 0.00 0.00 42 1010.8
20260904191750 92 251 4.0 7.0 0.00 0.00 0.00 42 1010.9
20260904191251 92 244 0.0 5.0 0.00 0.00 0.00 42 1010.9
20260904190751 91 175 2.0 7.0 0.00 0.00 0.00 44 1011.0
20260904190250 91 314 3.0 7.0 0.00 0.00 0.00 44 1011.0
20260904190017 90 327 2.0 10.0 0.00 0.00 0.00 42 1011.0
20260904185512 90 204 4.0 10.0 0.00 0.00 0.00 43 1011.2
20260904184751 90 299 0.0 7.0 0.00 0.00 0.00 45 1011.1
20260904184249 90 55 2.0 5.0 0.00 0.00 0.00 45 1011.2
20260904183750 89 230 0.0 7.0 0.00 0.00 0.00 47 1011.2
20260904183250 88 38 1.0 7.0 0.00 0.00 0.00 47 1011.4
20260904183012 89 289 2.0 7.0 0.00 0.00 0.00 49 1011.5
20260904182250 88 262 2.0 7.0 0.00 0.00 0.00 49 1011.5
20260904181750 88 309 3.0 7.0 0.00 0.00 0.00 50 1011.6
20260904181250 88 319 0.0 6.0 0.00 0.00 0.00 48 1011.6
20260904180750 87 18 3.0 7.0 0.00 0.00 0.00 49 1011.6
20260904180245 88 312 3.0 7.0 0.00 0.00 0.00 49 1011.7
20260904180235 89 285 4.0 7.0 0.00 0.00 0.00 50 1011.7
20260904175510 89 214 1.0 5.0 0.00 0.00 0.00 52 1012.0
20260904174749 87 166 1.0 6.0 0.00 0.00 0.00 51 1012.0
20260904174508 86 227 0.0 7.0 0.00 0.00 0.00 53 1012.0
20260904173749 86 219 4.0 7.0 0.00 0.00 0.00 54 1012.2
20260904173248 85 282 2.0 5.0 0.00 0.00 0.00 56 1012.2
20260904172749 85 274 1.0 6.0 0.00 0.00 0.00 56 1012.2
20260904172248 85 331 1.0 6.0 0.00 0.00 0.00 57 1012.3
20260904171749 85 331 1.0 6.0 0.00 0.00 0.00 55 1012.3